User: anonymous   Login
Location: Fort Wayne
(41.1310°N, 85.1290°W)
Time: 15:04:17
(UTC-04:00)
Language:

Cosmos 2219 Rocket - Orbit

View from above orbital plane
View from above orbital plane
View from above satellite
View from above satellite

Ground track
Ground track

The orbit data is extracted from the following two-line orbital elements,

1 22220U 92076B   17177.64146885 +.00000021 +00000-0 +34619-4 0  9997
2 22220 071.0008 039.3503 0015034 260.3564 130.0330 14.16418234271787
Epoch (UTC): 26 June 2017 15:23:42
Eccentricity: 0.0015034
inclination: 71.0008°
perigee height: 826 km
apogee height: 848 km
right ascension of ascending node: 39.3503°
argument of perigee: 260.3564°
revolutions per day: 14.16418234
mean anomaly at epoch: 130.0330°
orbit number at epoch: 27178

The dashed part of the orbit path shows where the satellite is in the earth's shadow,  

DLR